| time (UTC) | temp F | wind direction | speed knots | gust knots | rain 1hr in | rain 24hr in | rain mn in | humidity % | barometer mb |
| 20260508135836 | 50 | 270 | 0.0 | 0.0 | 0.00 | 0.00 | 0.00 | 68 | 1004.6 |
| 20260508134816 | 50 | 270 | 0.0 | 0.0 | 0.00 | 0.00 | 0.00 | 69 | 1004.5 |
| 20260508134306 | 50 | 270 | 0.0 | 0.0 | 0.00 | 0.00 | 0.00 | 70 | 1004.8 |
| 20260508133757 | 49 | 270 | 0.0 | 0.0 | 0.00 | 0.00 | 0.00 | 69 | 1004.5 |
| 20260508133246 | 50 | 270 | 0.0 | 0.0 | 0.00 | 0.00 | 0.00 | 70 | 1004.2 |
| 20260508132736 | 50 | 293 | 0.0 | 0.0 | 0.00 | 0.00 | 0.00 | 69 | 1004.3 |
| 20260508132226 | 50 | 270 | 0.0 | 0.0 | 0.00 | 0.00 | 0.00 | 69 | 1004.1 |
| 20260508131206 | 49 | 270 | 0.0 | 0.0 | 0.00 | 0.00 | 0.00 | 70 | 1004.1 |
| 20260508130655 | 49 | 270 | 0.0 | 0.0 | 0.00 | 0.00 | 0.00 | 71 | 1004.3 |
| 20260508125636 | 49 | 270 | 0.0 | 0.0 | 0.00 | 0.00 | 0.00 | 71 | 1004.0 |
| 20260508125125 | 49 | 270 | 0.0 | 0.0 | 0.00 | 0.00 | 0.00 | 71 | 1004.3 |
| 20260508124618 | 49 | 270 | 0.0 | 0.0 | 0.00 | 0.00 | 0.00 | 71 | 1004.3 |
| 20260508124105 | 49 | 270 | 0.0 | 0.0 | 0.00 | 0.00 | 0.00 | 71 | 1004.1 |
| 20260508123554 | 49 | 293 | 0.0 | 0.0 | 0.00 | 0.00 | 0.00 | 72 | 1004.4 |
| 20260508123047 | 48 | 293 | 0.0 | 0.0 | 0.00 | 0.00 | 0.00 | 73 | 1004.3 |
| 20260508122535 | 48 | 270 | 0.0 | 0.0 | 0.00 | 0.00 | 0.00 | 73 | 1004.3 |
| 20260508122035 | 48 | 270 | 0.0 | 0.0 | 0.00 | 0.00 | 0.00 | 73 | 1004.3 |
| 20260508121517 | 48 | 270 | 0.0 | 0.0 | 0.00 | 0.00 | 0.00 | 74 | 1004.2 |
| 20260508120454 | 47 | 293 | 0.0 | 0.0 | 0.00 | 0.00 | 0.00 | 75 | 1004.4 |
| 20260508115944 | 47 | 270 | 0.0 | 0.0 | 0.00 | 0.00 | 0.00 | 75 | 1004.0 |
| 20260508115434 | 47 | 270 | 0.0 | 0.0 | 0.00 | 0.00 | 0.00 | 76 | 1004.1 |
| 20260508114923 | 47 | 248 | 0.0 | 0.0 | 0.00 | 0.00 | 0.00 | 76 | 1003.8 |
| 20260508114413 | 47 | 270 | 0.0 | 0.0 | 0.00 | 0.00 | 0.00 | 76 | 1003.9 |
| 20260508113904 | 47 | 248 | 0.0 | 0.0 | 0.00 | 0.00 | 0.00 | 75 | 1004.0 |
| 20260508113354 | 47 | 270 | 0.0 | 0.0 | 0.00 | 0.00 | 0.00 | 75 | 1003.7 |
| 20260508112843 | 47 | 270 | 0.0 | 0.0 | 0.00 | 0.00 | 0.00 | 73 | 1003.7 |
| 20260508112333 | 47 | 293 | 0.0 | 0.0 | 0.00 | 0.00 | 0.00 | 72 | 1003.6 |
| 20260508111823 | 47 | 293 | 0.0 | 0.0 | 0.00 | 0.00 | 0.00 | 71 | 1003.6 |
| 20260508111313 | 47 | 293 | 0.0 | 0.0 | 0.00 | 0.00 | 0.00 | 70 | 1003.4 |
| 20260508110803 | 47 | 293 | 0.0 | 0.0 | 0.00 | 0.00 | 0.00 | 70 | 1003.3 |
| 20260508110252 | 47 | 248 | 0.0 | 0.0 | 0.00 | 0.00 | 0.00 | 70 | 1003.5 |
| 20260508105745 | 47 | 270 | 0.0 | 0.0 | 0.00 | 0.00 | 0.00 | 69 | 1003.1 |
| 20260508105232 | 47 | 248 | 0.0 | 0.0 | 0.00 | 0.00 | 0.00 | 69 | 1003.2 |
| 20260508104722 | 47 | 248 | 0.0 | 0.0 | 0.00 | 0.00 | 0.00 | 69 | 1003.1 |
| 20260508104212 | 47 | 293 | 0.0 | 0.0 | 0.00 | 0.00 | 0.00 | 69 | 1003.1 |
| 20260508103703 | 47 | 270 | 0.0 | 0.0 | 0.00 | 0.00 | 0.00 | 69 | 1003.2 |
| 20260508103152 | 47 | 293 | 0.0 | 0.0 | 0.00 | 0.00 | 0.00 | 70 | 1002.9 |
| 20260508102645 | 47 | 270 | 0.0 | 0.0 | 0.00 | 0.00 | 0.00 | 70 | 1003.1 |
| 20260508102131 | 47 | 270 | 0.0 | 0.0 | 0.00 | 0.00 | 0.00 | 70 | 1002.9 |
| 20260508101622 | 47 | 270 | 0.0 | 0.0 | 0.00 | 0.00 | 0.00 | 70 | 1002.7 |
| 20260508101111 | 47 | 270 | 0.0 | 0.0 | 0.00 | 0.00 | 0.00 | 70 | 1002.7 |
| 20260508100601 | 47 | 270 | 0.0 | 0.0 | 0.00 | 0.00 | 0.00 | 70 | 1002.8 |
| 20260508100052 | 47 | 270 | 0.0 | 0.0 | 0.00 | 0.00 | 0.00 | 69 | 1002.5 |
| 20260508095541 | 47 | 270 | 0.0 | 0.0 | 0.00 | 0.00 | 0.00 | 69 | 1002.3 |
| 20260508094015 | 47 | 270 | 0.0 | 0.0 | 0.00 | 0.00 | 0.00 | 68 | 1002.4 |
| 20260508093500 | 47 | 315 | 0.0 | 0.0 | 0.00 | 0.00 | 0.00 | 68 | 1002.2 |
| 20260508092950 | 48 | 270 | 0.0 | 0.0 | 0.00 | 0.00 | 0.00 | 68 | 1002.2 |
| 20260508092441 | 48 | 248 | 0.0 | 0.0 | 0.00 | 0.00 | 0.00 | 68 | 1002.0 |
| 20260508091930 | 48 | 225 | 0.0 | 0.0 | 0.00 | 0.00 | 0.00 | 68 | 1001.9 |
| 20260508091420 | 48 | 270 | 0.0 | 0.0 | 0.00 | 0.00 | 0.00 | 68 | 1002.0 |
| 20260508090910 | 48 | 270 | 0.0 | 0.0 | 0.00 | 0.00 | 0.00 | 68 | 1002.0 |
| 20260508090402 | 48 | 270 | 0.0 | 0.0 | 0.00 | 0.00 | 0.00 | 69 | 1001.9 |
| 20260508085340 | 48 | 270 | 0.0 | 0.0 | 0.00 | 0.00 | 0.00 | 68 | 1001.8 |
| 20260508084319 | 48 | 270 | 0.0 | 0.0 | 0.00 | 0.00 | 0.00 | 69 | 1001.6 |
| 20260508083809 | 48 | 248 | 0.0 | 0.0 | 0.00 | 0.00 | 0.00 | 70 | 1001.6 |
| 20260508083300 | 48 | 293 | 0.0 | 0.0 | 0.00 | 0.00 | 0.00 | 71 | 1001.5 |
| 20260508082749 | 48 | 293 | 0.0 | 0.0 | 0.00 | 0.00 | 0.00 | 71 | 1001.7 |
| 20260508082239 | 49 | 293 | 0.0 | 0.0 | 0.00 | 0.00 | 0.00 | 71 | 1001.6 |
| 20260508081729 | 49 | 248 | 0.0 | 0.0 | 0.00 | 0.00 | 0.00 | 70 | 1001.7 |
| 20260508081219 | 49 | 270 | 0.0 | 0.0 | 0.00 | 0.00 | 0.00 | 72 | 1001.6 |
| 20260508080709 | 49 | 293 | 0.0 | 0.0 | 0.00 | 0.00 | 0.00 | 74 | 1001.4 |
| 20260508080158 | 49 | 315 | 0.0 | 0.0 | 0.00 | 0.00 | 0.00 | 75 | 1001.6 |
| 20260508075648 | 49 | 270 | 0.0 | 0.0 | 0.00 | 0.00 | 0.00 | 75 | 1001.8 |
| 20260508075138 | 49 | 270 | 0.0 | 0.0 | 0.00 | 0.00 | 0.00 | 76 | 1001.8 |
| 20260508074628 | 49 | 270 | 0.0 | 0.0 | 0.00 | 0.00 | 0.00 | 78 | 1001.9 |
| 20260508074118 | 49 | 315 | 0.0 | 0.0 | 0.00 | 0.00 | 0.00 | 80 | 1001.7 |
| 20260508073608 | 49 | 315 | 0.0 | 0.0 | 0.00 | 0.00 | 0.00 | 80 | 1001.7 |
| 20260508072549 | 49 | 270 | 0.0 | 0.0 | 0.00 | 0.00 | 0.00 | 80 | 1001.9 |
| 20260508071527 | 49 | 293 | 0.0 | 0.0 | 0.00 | 0.00 | 0.00 | 79 | 1001.8 |
| 20260508071017 | 49 | 293 | 0.0 | 0.0 | 0.00 | 0.00 | 0.00 | 78 | 1001.9 |
| 20260508070507 | 49 | 270 | 0.0 | 0.0 | 0.00 | 0.00 | 0.00 | 78 | 1002.0 |
| 20260508065957 | 49 | 293 | 0.0 | 0.0 | 0.00 | 0.00 | 0.00 | 78 | 1001.8 |
| 20260508065447 | 49 | 270 | 0.0 | 0.0 | 0.00 | 0.00 | 0.00 | 77 | 1002.0 |
| 20260508064937 | 49 | 270 | 0.0 | 0.0 | 0.00 | 0.00 | 0.00 | 77 | 1001.8 |
| 20260508064427 | 49 | 248 | 0.0 | 0.0 | 0.00 | 0.00 | 0.00 | 77 | 1001.9 |
| 20260508063916 | 49 | 270 | 0.0 | 0.0 | 0.00 | 0.00 | 0.00 | 76 | 1001.9 |
| 20260508063408 | 49 | 293 | 0.0 | 0.0 | 0.00 | 0.00 | 0.00 | 76 | 1001.9 |
| 20260508062347 | 49 | 293 | 0.0 | 0.0 | 0.00 | 0.00 | 0.00 | 75 | 1002.1 |
| 20260508061836 | 50 | 270 | 0.0 | 0.0 | 0.00 | 0.00 | 0.00 | 75 | 1002.2 |
| 20260508061326 | 50 | 270 | 0.0 | 0.0 | 0.00 | 0.00 | 0.00 | 75 | 1002.1 |
| 20260508060306 | 50 | 270 | 0.0 | 0.0 | 0.00 | 0.00 | 0.00 | 75 | 1002.3 |
| 20260508055756 | 50 | 293 | 0.0 | 0.0 | 0.00 | 0.00 | 0.00 | 76 | 1002.6 |
| 20260508055246 | 50 | 293 | 0.0 | 0.0 | 0.00 | 0.00 | 0.00 | 76 | 1002.2 |
| 20260508054735 | 50 | 270 | 0.0 | 0.0 | 0.00 | 0.00 | 0.00 | 76 | 1002.4 |
| 20260508054226 | 50 | 270 | 0.0 | 0.0 | 0.00 | 0.00 | 0.00 | 76 | 1002.6 |
| 20260508053716 | 50 | 270 | 0.0 | 0.0 | 0.00 | 0.00 | 0.00 | 76 | 1002.3 |
| 20260508053205 | 50 | 315 | 0.0 | 0.0 | 0.00 | 0.00 | 0.00 | 77 | 1002.5 |
| 20260508052655 | 50 | 270 | 0.0 | 0.0 | 0.00 | 0.00 | 0.00 | 77 | 1002.3 |
| 20260508052145 | 50 | 248 | 0.0 | 0.0 | 0.00 | 0.00 | 0.00 | 77 | 1002.4 |
| 20260508051635 | 50 | 270 | 0.0 | 0.0 | 0.00 | 0.00 | 0.00 | 79 | 1002.3 |
| 20260508051125 | 50 | 293 | 0.0 | 0.0 | 0.00 | 0.00 | 0.00 | 79 | 1002.5 |
| 20260508050615 | 50 | 270 | 0.0 | 0.0 | 0.00 | 0.00 | 0.00 | 80 | 1002.4 |
| 20260508050114 | 50 | 248 | 0.0 | 0.0 | 0.00 | 0.00 | 0.00 | 80 | 1002.3 |
| 20260508045555 | 50 | 293 | 0.0 | 0.0 | 0.00 | 0.00 | 0.00 | 80 | 1002.4 |
| 20260508045045 | 50 | 293 | 0.0 | 0.0 | 0.00 | 0.00 | 0.00 | 80 | 1002.3 |
| 20260508044534 | 50 | 270 | 0.0 | 0.0 | 0.00 | 0.00 | 0.00 | 81 | 1002.1 |
| 20260508044024 | 49 | 248 | 0.0 | 0.0 | 0.00 | 0.00 | 0.00 | 82 | 1002.1 |
| 20260508043514 | 49 | 248 | 0.0 | 0.0 | 0.00 | 0.00 | 0.00 | 84 | 1002.1 |
| 20260508043003 | 49 | 270 | 0.0 | 0.0 | 0.00 | 0.00 | 0.00 | 85 | 1002.1 |
| 20260508042454 | 49 | 270 | 0.0 | 0.0 | 0.00 | 0.00 | 0.00 | 86 | 1002.3 |
| 20260508041943 | 49 | 270 | 0.0 | 0.0 | 0.00 | 0.00 | 0.00 | 88 | 1002.1 |
| 20260508040923 | 48 | 248 | 0.0 | 0.0 | 0.00 | 0.00 | 0.00 | 91 | 1002.1 |
| 20260508040413 | 47 | 248 | 0.0 | 0.0 | 0.00 | 0.00 | 0.00 | 94 | 1002.1 |
| 20260508035903 | 47 | 248 | 0.0 | 0.0 | 0.00 | 0.00 | 0.00 | 95 | 1002.2 |
| 20260508034333 | 47 | 248 | 0.0 | 0.0 | 0.00 | 0.00 | 0.00 | 95 | 1002.4 |
| 20260508033823 | 47 | 270 | 0.0 | 0.0 | 0.00 | 0.00 | 0.00 | 95 | 1002.2 |
| 20260508033313 | 48 | 248 | 0.0 | 0.0 | 0.00 | 0.00 | 0.00 | 95 | 1002.3 |
| 20260508032803 | 48 | 248 | 0.0 | 0.0 | 0.00 | 0.00 | 0.00 | 94 | 1002.4 |
| 20260508031232 | 49 | 270 | 0.0 | 0.0 | 0.00 | 0.00 | 0.00 | 91 | 1002.2 |
| 20260508030722 | 49 | 270 | 0.0 | 0.0 | 0.00 | 0.00 | 0.00 | 91 | 1002.1 |
| 20260508030212 | 49 | 270 | 0.0 | 0.0 | 0.00 | 0.00 | 0.00 | 92 | 1002.1 |
| 20260508025702 | 49 | 225 | 0.0 | 0.0 | 0.00 | 0.00 | 0.73 | 93 | 1002.3 |
| 20260508024641 | 49 | 270 | 0.0 | 0.0 | 0.00 | 0.00 | 0.73 | 92 | 1002.1 |
| 20260508024132 | 49 | 270 | 0.0 | 0.0 | 0.00 | 0.00 | 0.73 | 91 | 1002.1 |
| 20260508023621 | 50 | 248 | 0.0 | 0.0 | 0.00 | 0.00 | 0.73 | 91 | 1002.1 |
| 20260508023111 | 50 | 248 | 0.0 | 0.0 | 0.00 | 0.00 | 0.73 | 91 | 1002.0 |
| 20260508022601 | 50 | 270 | 0.0 | 0.0 | 0.00 | 0.00 | 0.73 | 90 | 1002.0 |
| 20260508022051 | 50 | 270 | 0.0 | 0.0 | 0.00 | 0.00 | 0.73 | 90 | 1002.2 |
| 20260508021542 | 50 | 248 | 0.0 | 0.0 | 0.00 | 0.00 | 0.73 | 89 | 1001.9 |
| 20260508020521 | 51 | 270 | 0.0 | 0.0 | 0.00 | 0.00 | 0.73 | 89 | 1001.9 |
| 20260508020011 | 51 | 270 | 0.0 | 0.0 | 0.00 | 0.00 | 0.73 | 89 | 1001.9 |
| 20260508015500 | 51 | 270 | 0.0 | 0.0 | 0.00 | 0.00 | 0.73 | 90 | 1001.9 |
| 20260508014950 | 51 | 248 | 0.0 | 0.0 | 0.00 | 0.00 | 0.73 | 90 | 1001.8 |
| 20260508014441 | 51 | 270 | 0.0 | 0.0 | 0.00 | 0.00 | 0.73 | 90 | 1001.7 |
| 20260508013420 | 51 | 248 | 0.0 | 0.0 | 0.00 | 0.00 | 0.73 | 90 | 1001.8 |
| 20260508012910 | 51 | 270 | 0.0 | 0.0 | 0.00 | 0.00 | 0.73 | 90 | 1001.8 |
| 20260508012359 | 51 | 293 | 0.0 | 0.0 | 0.00 | 0.00 | 0.73 | 90 | 1001.7 |
| 20260508011850 | 51 | 293 | 0.0 | 0.0 | 0.00 | 0.00 | 0.73 | 89 | 1001.7 |
| 20260508011339 | 52 | 248 | 0.0 | 0.0 | 0.00 | 0.00 | 0.73 | 89 | 1001.9 |
| 20260508010830 | 52 | 293 | 0.0 | 0.0 | 0.00 | 0.00 | 0.73 | 89 | 1001.6 |
| 20260508010319 | 52 | 248 | 0.0 | 0.0 | 0.00 | 0.00 | 0.73 | 89 | 1001.5 |
| 20260508005810 | 52 | 293 | 0.0 | 0.0 | 0.00 | 0.00 | 0.73 | 90 | 1001.9 |
| 20260508005259 | 52 | 270 | 0.0 | 0.0 | 0.00 | 0.00 | 0.73 | 90 | 1001.6 |
| 20260508004749 | 52 | 248 | 0.0 | 0.0 | 0.00 | 0.00 | 0.73 | 90 | 1001.7 |
| 20260508004243 | 52 | 293 | 0.0 | 0.0 | 0.00 | 0.00 | 0.73 | 91 | 1001.6 |
| 20260508003729 | 52 | 270 | 0.0 | 0.0 | 0.00 | 0.00 | 0.73 | 91 | 1002.0 |
| 20260508002709 | 52 | 248 | 0.0 | 0.0 | 0.00 | 0.00 | 0.73 | 91 | 1002.2 |
| 20260508002159 | 52 | 293 | 0.0 | 0.0 | 0.00 | 0.00 | 0.73 | 91 | 1002.2 |
| 20260508001649 | 53 | 293 | 0.0 | 0.0 | 0.00 | 0.00 | 0.73 | 89 | 1002.4 |
| 20260508001138 | 53 | 315 | 0.0 | 0.0 | 0.00 | 0.00 | 0.73 | 88 | 1002.3 |
| 20260508000628 | 53 | 293 | 0.0 | 0.0 | 0.00 | 0.00 | 0.73 | 88 | 1002.2 |
| 20260508000118 | 53 | 248 | 0.0 | 0.0 | 0.00 | 0.00 | 0.73 | 87 | 1002.6 |
| 20260507235608 | 53 | 270 | 0.0 | 0.0 | 0.00 | 0.00 | 0.73 | 87 | 1002.5 |
| 20260507235058 | 53 | 293 | 0.0 | 0.0 | 0.00 | 0.00 | 0.73 | 87 | 1002.5 |
| 20260507234547 | 53 | 293 | 0.0 | 0.0 | 0.00 | 0.00 | 0.73 | 87 | 1002.3 |
| 20260507233528 | 53 | 248 | 0.0 | 0.0 | 0.00 | 0.00 | 0.73 | 89 | 1002.0 |
| 20260507232508 | 53 | 270 | 0.0 | 0.0 | 0.00 | 0.00 | 0.73 | 91 | 1002.4 |
| 20260507231957 | 53 | 270 | 0.0 | 0.0 | 0.00 | 0.00 | 0.73 | 91 | 1002.2 |
| 20260507231447 | 53 | 338 | 0.0 | 0.0 | 0.00 | 0.00 | 0.73 | 91 | 1002.5 |
| 20260507230936 | 53 | 338 | 0.0 | 0.0 | 0.00 | 0.00 | 0.73 | 92 | 1002.1 |
| 20260507230426 | 53 | 270 | 0.0 | 0.0 | 0.00 | 0.00 | 0.73 | 93 | 1002.4 |
| 20260507225917 | 52 | 293 | 0.0 | 0.0 | 0.00 | 0.00 | 0.73 | 94 | 1002.2 |
| 20260507225407 | 53 | 270 | 0.0 | 0.0 | 0.00 | 0.00 | 0.73 | 95 | 1002.5 |
| 20260507224346 | 53 | 293 | 0.0 | 0.0 | 0.00 | 0.00 | 0.73 | 94 | 1002.3 |
| 20260507223327 | 53 | 270 | 0.0 | 0.0 | 0.00 | 0.00 | 0.73 | 92 | 1002.7 |
| 20260507222815 | 54 | 293 | 0.0 | 0.0 | 0.00 | 0.00 | 0.73 | 91 | 1002.6 |
| 20260507222306 | 54 | 248 | 0.0 | 0.0 | 0.00 | 0.00 | 0.73 | 90 | 1002.5 |
| 20260507220225 | 55 | 270 | 0.0 | 0.0 | 0.00 | 0.00 | 0.73 | 85 | 1001.9 |
| 20260507215715 | 55 | 270 | 0.0 | 0.0 | 0.00 | 0.00 | 0.73 | 85 | 1001.6 |
| 20260507214655 | 56 | 270 | 0.0 | 0.0 | 0.00 | 0.00 | 0.73 | 83 | 1001.3 |
| 20260507214145 | 56 | 270 | 0.0 | 0.0 | 0.00 | 0.00 | 0.73 | 83 | 1001.2 |
| 20260507213634 | 56 | 248 | 0.0 | 0.0 | 0.00 | 0.00 | 0.73 | 83 | 1001.4 |
| 20260507213125 | 56 | 270 | 0.0 | 0.0 | 0.00 | 0.00 | 0.73 | 83 | 1001.1 |
| 20260507212615 | 56 | 270 | 0.0 | 0.0 | 0.00 | 0.00 | 0.73 | 83 | 1001.2 |
| 20260507211555 | 56 | 270 | 0.0 | 0.0 | 0.00 | 0.00 | 0.73 | 83 | 1001.0 |
| 20260507211044 | 56 | 315 | 0.0 | 0.0 | 0.00 | 0.00 | 0.73 | 83 | 1001.4 |
| 20260507210023 | 56 | 270 | 0.0 | 0.0 | 0.00 | 0.00 | 0.73 | 82 | 1001.5 |
| 20260507205514 | 56 | 270 | 0.0 | 0.0 | 0.00 | 0.00 | 0.73 | 82 | 1001.6 |
| 20260507205004 | 56 | 293 | 0.0 | 0.0 | 0.00 | 0.00 | 0.73 | 82 | 1001.5 |
| 20260507204453 | 56 | 270 | 0.0 | 0.0 | 0.00 | 0.00 | 0.73 | 81 | 1001.3 |
| 20260507203944 | 56 | 315 | 0.0 | 0.0 | 0.00 | 0.00 | 0.73 | 81 | 1001.0 |
| 20260507203433 | 56 | 270 | 0.0 | 0.0 | 0.00 | 0.00 | 0.73 | 80 | 1001.2 |
| 20260507202923 | 57 | 293 | 0.0 | 0.0 | 0.00 | 0.00 | 0.73 | 79 | 1001.2 |
| 20260507201903 | 57 | 293 | 0.0 | 0.0 | 0.00 | 0.00 | 0.73 | 78 | 1000.9 |
| 20260507200843 | 57 | 270 | 0.0 | 0.0 | 0.00 | 0.00 | 0.73 | 77 | 1001.2 |
| 20260507200333 | 57 | 270 | 0.0 | 0.0 | 0.00 | 0.00 | 0.73 | 77 | 1000.9 |
| 20260507195823 | 57 | 270 | 0.0 | 0.0 | 0.00 | 0.00 | 0.73 | 76 | 1000.5 |
| 20260507195312 | 57 | 293 | 0.0 | 0.0 | 0.00 | 0.00 | 0.73 | 76 | 1000.7 |
| 20260507194803 | 58 | 270 | 0.0 | 0.0 | 0.00 | 0.00 | 0.73 | 76 | 1000.4 |
| 20260507194253 | 58 | 270 | 0.0 | 0.0 | 0.00 | 0.00 | 0.73 | 76 | 999.9 |
| 20260507193742 | 58 | 270 | 0.0 | 0.0 | 0.00 | 0.00 | 0.73 | 75 | 999.4 |
| 20260507192722 | 58 | 270 | 0.0 | 0.0 | 0.00 | 0.00 | 0.73 | 75 | 999.0 |
| 20260507192212 | 58 | 270 | 0.0 | 0.0 | 0.00 | 0.00 | 0.73 | 75 | 998.8 |
| 20260507191153 | 58 | 270 | 0.0 | 0.0 | 0.00 | 0.00 | 0.73 | 73 | 999.2 |
| 20260507190642 | 59 | 248 | 0.0 | 0.0 | 0.00 | 0.00 | 0.73 | 72 | 999.6 |
| 20260507190132 | 58 | 270 | 0.0 | 0.0 | 0.00 | 0.00 | 0.73 | 73 | 999.8 |
| 20260507185112 | 59 | 248 | 0.0 | 0.0 | 0.00 | 0.00 | 0.73 | 74 | 1000.3 |
| 20260507184601 | 58 | 270 | 0.0 | 0.0 | 0.00 | 0.00 | 0.73 | 75 | 1000.7 |
| 20260507184051 | 58 | 270 | 0.0 | 0.0 | 0.00 | 0.00 | 0.73 | 75 | 1001.7 |
| 20260507183541 | 58 | 270 | 0.0 | 0.0 | 0.00 | 0.00 | 0.73 | 76 | 1001.7 |
| 20260507183031 | 58 | 293 | 0.0 | 0.0 | 0.00 | 0.00 | 0.73 | 76 | 1001.6 |
| 20260507181457 | 58 | 270 | 0.0 | 0.0 | 0.00 | 0.00 | 0.73 | 77 | 1001.4 |
| 20260507180947 | 58 | 293 | 0.0 | 0.0 | 0.00 | 0.00 | 0.73 | 77 | 1001.5 |
| 20260507180440 | 58 | 270 | 0.0 | 0.0 | 0.00 | 0.00 | 0.73 | 77 | 1001.6 |
| 20260507175930 | 58 | 248 | 0.0 | 0.0 | 0.00 | 0.00 | 0.73 | 77 | 1001.9 |
| 20260507175420 | 57 | 315 | 0.0 | 0.0 | 0.00 | 0.00 | 0.73 | 77 | 1002.4 |
| 20260507174909 | 58 | 293 | 0.0 | 0.0 | 0.00 | 0.00 | 0.73 | 77 | 1002.9 |
| 20260507174401 | 58 | 293 | 0.0 | 0.0 | 0.00 | 0.00 | 0.73 | 78 | 1003.0 |
| 20260507173851 | 57 | 293 | 0.0 | 0.0 | 0.00 | 0.00 | 0.73 | 78 | 1003.0 |
| 20260507173339 | 57 | 248 | 0.0 | 0.0 | 0.00 | 0.00 | 0.73 | 78 | 1002.8 |
| 20260507172829 | 57 | 293 | 0.0 | 0.0 | 0.00 | 0.00 | 0.73 | 78 | 1003.0 |
| 20260507172319 | 57 | 293 | 0.0 | 0.0 | 0.00 | 0.00 | 0.73 | 77 | 1002.8 |
| 20260507171809 | 57 | 293 | 0.0 | 0.0 | 0.00 | 0.00 | 0.73 | 77 | 1002.6 |
| 20260507171258 | 57 | 293 | 0.0 | 0.0 | 0.00 | 0.00 | 0.73 | 78 | 1002.2 |
| 20260507170749 | 57 | 270 | 0.0 | 0.0 | 0.00 | 0.00 | 0.73 | 78 | 1001.5 |
| 20260507165728 | 57 | 248 | 0.0 | 0.0 | 0.00 | 0.00 | 0.73 | 79 | 1000.6 |
| 20260507164158 | 58 | 248 | 0.0 | 0.0 | 0.00 | 0.00 | 0.73 | 78 | 1001.0 |
| 20260507163649 | 58 | 270 | 0.0 | 0.0 | 0.00 | 0.00 | 0.73 | 79 | 1001.2 |
| 20260507162628 | 58 | 270 | 0.0 | 0.0 | 0.00 | 0.00 | 0.73 | 78 | 1001.8 |
| 20260507162118 | 58 | 248 | 0.0 | 0.0 | 0.00 | 0.00 | 0.73 | 78 | 1001.9 |
| 20260507161608 | 58 | 248 | 0.0 | 0.0 | 0.00 | 0.00 | 0.73 | 78 | 1002.4 |
| 20260507161058 | 58 | 248 | 0.0 | 0.0 | 0.00 | 0.00 | 0.73 | 79 | 1002.5 |
| 20260507160037 | 58 | 270 | 0.0 | 0.0 | 0.00 | 0.00 | 0.73 | 80 | 1002.2 |
| 20260507155530 | 59 | 225 | 0.0 | 0.0 | 0.00 | 0.00 | 0.73 | 81 | 1002.1 |
| 20260507155018 | 58 | 270 | 0.0 | 0.0 | 0.00 | 0.00 | 0.73 | 81 | 1001.7 |
| 20260507153957 | 58 | 248 | 0.0 | 0.0 | 0.00 | 0.00 | 0.73 | 82 | 1001.6 |
| 20260507153447 | 58 | 248 | 0.0 | 0.0 | 0.00 | 0.00 | 0.73 | 81 | 1001.2 |
| 20260507151917 | 58 | 270 | 0.0 | 0.0 | 0.00 | 0.00 | 0.73 | 83 | 1001.2 |